When you browse on this site, cookies collect data to enhance your experience and personalize the content and advertising you see.
Visit our Privacy Policy to learn more. By continuing to use the site, you agree to this use of cookies and data.
  • In Latvia
  • List of Countries
  • For 7 days
  • Water Temperature
  • Weather Map
  • Weather Widgets
  • user-avatar
    Login

    Hourly Weather Townsville

    Today, 17 November, Sunday

    Time Temperature Precipitation Wind Pressure Humidity
    00:00 +22°C° 0 mm 3 mps 754 mmHg 87%
    01:00 +22°C° 0 mm 3 mps 754 mmHg 87%
    02:00 +22°C° 0 mm 3 mps 754 mmHg 87%
    03:00 +24°C° 0 mm 3 mps 753 mmHg 87%
    04:00 +24°C° 0 mm 3 mps 753 mmHg 87%
    05:00 +25°C° 0 mm 2 mps 754 mmHg 82%
    06:00 +25°C° 0 mm 2 mps 754 mmHg 77%
    07:00 +26°C° 0 mm 2 mps 754 mmHg 72%
    08:00 +28°C° 0 mm 2 mps 754 mmHg 63%
    09:00 +30°C° 0 mm 3 mps 754 mmHg 54%
    10:00 +33°C° 0 mm 3 mps 754 mmHg 45%
    11:00 +34°C° 0 mm 3 mps 753 mmHg 44%
    12:00 +34°C° 0 mm 4 mps 753 mmHg 42%
    13:00 +35°C° 0 mm 4 mps 752 mmHg 41%
    14:00 +34°C° 0 mm 4 mps 752 mmHg 42%
    15:00 +33°C° 0 mm 4 mps 751 mmHg 44%
    16:00 +33°C° 0 mm 3 mps 751 mmHg 46%
    17:00 +30°C° 0 mm 3 mps 751 mmHg 57%
    18:00 +28°C° 0 mm 3 mps 751 mmHg 67%
    19:00 +25°C° 0 mm 3 mps 752 mmHg 78%
    20:00 +25°C° 0 mm 3 mps 752 mmHg 82%
    21:00 +25°C° 0 mm 3 mps 753 mmHg 86%
    22:00 +24°C° 0 mm 2 mps 753 mmHg 89%
    23:00 +24°C° 0 mm 2 mps 753 mmHg 89%

    Tomorrow, 18 November, Monday

    Time Temperature Precipitation Wind Pressure Humidity
    00:00 +24°C° 0 mm 2 mps 752 mmHg 90%
    01:00 +24°C° 0 mm 2 mps 752 mmHg 90%
    02:00 +23°C° 0 mm 2 mps 752 mmHg 90%
    03:00 +23°C° 0 mm 2 mps 752 mmHg 91%
    04:00 +23°C° 0 mm 2 mps 752 mmHg 91%
    05:00 +24°C° 0 mm 2 mps 752 mmHg 85%
    06:00 +25°C° 0 mm 2 mps 753 mmHg 80%
    07:00 +26°C° 0 mm 2 mps 753 mmHg 75%
    08:00 +29°C° 0 mm 2 mps 753 mmHg 64%
    09:00 +31°C° 0 mm 2 mps 753 mmHg 53%
    10:00 +34°C° 0 mm 2 mps 753 mmHg 42%
    11:00 +35°C° 0 mm 3 mps 753 mmHg 42%
    12:00 +35°C° 0 mm 3 mps 752 mmHg 41%
    13:00 +35°C° 0 mm 4 mps 751 mmHg 41%
    14:00 +34°C° 0 mm 4 mps 751 mmHg 44%
    15:00 +34°C° 0 mm 4 mps 750 mmHg 46%
    16:00 +33°C° 0 mm 4 mps 750 mmHg 49%
    17:00 +30°C° 0 mm 4 mps 750 mmHg 60%
    18:00 +28°C° 0 mm 3 mps 751 mmHg 70%
    19:00 +26°C° 0 mm 3 mps 751 mmHg 81%
    20:00 +25°C° 0 mm 3 mps 752 mmHg 84%
    21:00 +25°C° 0 mm 3 mps 752 mmHg 87%
    22:00 +25°C° 0 mm 3 mps 752 mmHg 91%
    23:00 +25°C° 0 mm 3 mps 752 mmHg 91%

    Day after tomorrow, 19 November, Tuesday

    Time Temperature Precipitation Wind Pressure Humidity
    00:00 +25°C° 0 mm 2 mps 752 mmHg 90%
    01:00 +25°C° 0 mm 2 mps 751 mmHg 90%
    02:00 +25°C° 0 mm 2 mps 752 mmHg 89%
    03:00 +25°C° 0 mm 2 mps 752 mmHg 87%
    04:00 +25°C° 0 mm 2 mps 752 mmHg 85%
    05:00 +26°C° 0 mm 3 mps 752 mmHg 79%
    06:00 +27°C° 0 mm 3 mps 753 mmHg 73%
    07:00 +28°C° 0 mm 3 mps 753 mmHg 67%
    08:00 +29°C° 0 mm 3 mps 753 mmHg 61%
    09:00 +30°C° 0 mm 3 mps 753 mmHg 55%
    10:00 +33°C° 0 mm 4 mps 753 mmHg 49%
    11:00 +33°C° 0 mm 4 mps 753 mmHg 48%
    12:00 +33°C° 0 mm 4 mps 752 mmHg 48%
    13:00 +34°C° 0 mm 4 mps 751 mmHg 47%
    14:00 +33°C° 0 mm 4 mps 751 mmHg 49%
    15:00 +32°C° 0 mm 4 mps 751 mmHg 51%
    16:00 +32°C° 0 mm 4 mps 750 mmHg 53%
    17:00 +29°C° 0 mm 4 mps 751 mmHg 62%
    18:00 +27°C° 0 mm 3 mps 751 mmHg 71%
    19:00 +26°C° 0 mm 3 mps 752 mmHg 80%
    20:00 +25°C° 0 mm 3 mps 752 mmHg 83%
    21:00 +25°C° 0 mm 3 mps 752 mmHg 86%
    22:00 +25°C° 0 mm 3 mps 753 mmHg 89%
    23:00 +25°C° 0 mm 3 mps 752 mmHg 89%

    20 November, Wednesday

    Time Temperature Precipitation Wind Pressure Humidity
    00:00 +25°C° 0 mm 3 mps 752 mmHg 89%
    01:00 +25°C° 0 mm 3 mps 752 mmHg 88%
    02:00 +25°C° 0 mm 3 mps 752 mmHg 87%
    03:00 +24°C° 0 mm 3 mps 751 mmHg 86%
    04:00 +24°C° 0 mm 2 mps 751 mmHg 85%
    05:00 +25°C° 0 mm 2 mps 752 mmHg 80%
    06:00 +26°C° 0 mm 2 mps 752 mmHg 75%
    07:00 +27°C° 0 mm 2 mps 753 mmHg 69%
    08:00 +29°C° 0 mm 2 mps 753 mmHg 62%
    09:00 +30°C° 0 mm 3 mps 753 mmHg 55%
    10:00 +33°C° 0 mm 3 mps 753 mmHg 47%
    11:00 +33°C° 0 mm 3 mps 752 mmHg 47%
    12:00 +34°C° 0 mm 4 mps 752 mmHg 46%
    13:00 +34°C° 0 mm 4 mps 751 mmHg 45%
    14:00 +33°C° 0 mm 4 mps 751 mmHg 47%
    15:00 +33°C° 0 mm 4 mps 750 mmHg 49%
    16:00 +32°C° 0 mm 4 mps 750 mmHg 51%
    17:00 +29°C° 0 mm 4 mps 751 mmHg 59%
    18:00 +28°C° 0 mm 3 mps 751 mmHg 68%
    19:00 +26°C° 0 mm 3 mps 752 mmHg 77%
    20:00 +25°C° 0 mm 3 mps 752 mmHg 80%
    21:00 +25°C° 0 mm 3 mps 753 mmHg 84%
    22:00 +24°C° 0 mm 3 mps 753 mmHg 87%
    23:00 +24°C° 0 mm 3 mps 753 mmHg 87%

    21 November, Thursday

    Time Temperature Precipitation Wind Pressure Humidity
    00:00 +24°C° 0 mm 3 mps 753 mmHg 88%
    01:00 +24°C° 0 mm 2 mps 752 mmHg 88%
    02:00 +23°C° 0 mm 2 mps 752 mmHg 88%
    03:00 +23°C° 0 mm 2 mps 752 mmHg 88%
    04:00 +23°C° 0 mm 2 mps 752 mmHg 88%
    05:00 +24°C° 0 mm 2 mps 752 mmHg 82%
    06:00 +25°C° 0 mm 2 mps 753 mmHg 76%
    07:00 +26°C° 0 mm 2 mps 753 mmHg 69%
    08:00 +28°C° 0 mm 3 mps 753 mmHg 62%
    09:00 +30°C° 0 mm 3 mps 753 mmHg 55%
    10:00 +32°C° 0 mm 4 mps 753 mmHg 47%
    11:00 +33°C° 0 mm 4 mps 753 mmHg 47%
    12:00 +33°C° 0 mm 5 mps 752 mmHg 46%
    13:00 +33°C° 0 mm 6 mps 752 mmHg 46%
    14:00 +33°C° 0 mm 6 mps 752 mmHg 48%
    15:00 +32°C° 0 mm 6 mps 751 mmHg 50%
    16:00 +30°C° 0 mm 6 mps 751 mmHg 53%
    17:00 +28°C° 0 mm 6 mps 752 mmHg 60%
    18:00 +27°C° 0 mm 5 mps 752 mmHg 67%
    19:00 +25°C° 0 mm 5 mps 753 mmHg 74%
    20:00 +23°C° 0 mm 5 mps 753 mmHg 77%
    21:00 +23°C° 0 mm 4 mps 754 mmHg 80%
    22:00 +22°C° 0 mm 4 mps 754 mmHg 83%
    23:00 +22°C° 0 mm 4 mps 754 mmHg 83%

    22 November, Friday

    Time Temperature Precipitation Wind Pressure Humidity
    00:00 +22°C° 0 mm 4 mps 753 mmHg 82%
    01:00 +22°C° 0 mm 4 mps 753 mmHg 82%
    02:00 +22°C° 0 mm 3 mps 753 mmHg 83%
    03:00 +21°C° 0 mm 3 mps 753 mmHg 84%
    04:00 +21°C° 0 mm 3 mps 753 mmHg 85%
    05:00 +22°C° 0 mm 3 mps 753 mmHg 80%
    06:00 +24°C° 0 mm 3 mps 753 mmHg 75%
    07:00 +25°C° 0 mm 3 mps 753 mmHg 70%
    08:00 +27°C° 0 mm 3 mps 753 mmHg 62%
    09:00 +29°C° 0 mm 3 mps 753 mmHg 54%
    10:00 +31°C° 0 mm 3 mps 753 mmHg 46%
    11:00 +32°C° 0 mm 4 mps 753 mmHg 46%
    12:00 +33°C° 0 mm 4 mps 752 mmHg 46%
    13:00 +33°C° 0 mm 4 mps 752 mmHg 47%
    14:00 +33°C° 0 mm 5 mps 751 mmHg 50%
    15:00 +32°C° 0 mm 5 mps 751 mmHg 52%
    16:00 +32°C° 0 mm 5 mps 751 mmHg 55%
    17:00 +29°C° 0 mm 4 mps 751 mmHg 63%
    18:00 +27°C° 0 mm 4 mps 751 mmHg 71%
    19:00 +26°C° 0 mm 4 mps 752 mmHg 80%
    20:00 +25°C° 0 mm 4 mps 752 mmHg 81%
    21:00 +25°C° 0 mm 4 mps 753 mmHg 82%
    22:00 +23°C° 0 mm 4 mps 753 mmHg 83%
    23:00 +23°C° 0 mm 4 mps 753 mmHg 84%
    Show more